Regional Weather Roundup
Issued by NWS

Home | Current Version | Previous Version | Graphics & Text | Print | Product List | Glossary On
Versions: 1 2 3 4 5 6 7 8 9 10 11 12 13 14 15 16 17 18 19 20 21 22 23 24 25 26 27 28 29 30 31 32 33 34 35 36 37 38 39 40 41 42 43 44 45 46 47 48 49 50
000
ASUS45 KCYS 260810
RWRWY

WYOMING REGIONAL WEATHER ROUNDUP
NATIONAL WEATHER SERVICE CHEYENNE WY
200 AM MDT SUN APR 26 2015

NOTE:  "FAIR" INDICATES FEW OR NO CLOUDS BELOW 12,000 FEET
WITH NO SIGNIFICANT WEATHER AND/OR OBSTRUCTIONS TO VISIBILITY.

WYZ001-260900-
YELLOWSTONE NATIONAL PARK

CITY           SKY/WX    TMP DP  RH WIND       PRES   REMARKS
LK YELLOWSTONE   N/A     32  28  85 CALM      29.82F
W YELLOWSTONE  NOT AVBL

$$
WYZ002>013-054>058-071-098>099-260900-
NORTHERN WYOMING

CITY           SKY/WX    TMP DP  RH WIND       PRES   REMARKS
JACKSON        CLOUDY    39  28  65 N8        29.76S WCI  34
CODY           CLOUDY    41  30  65 NW5       29.85S
GREYBULL       CLOUDY    45  31  58 SW5       29.83R
WORLAND        CLOUDY    44  36  73 SW3       29.83S
SHERIDAN       CLOUDY    36  33  89 CALM      29.91R
BUFFALO        CLOUDY    39  33  79 N3        29.90F
GILLETTE       CLOUDY    39  35  86 N10       29.90F WCI  32
HULETT         CLOUDY    37  36  93 NE5       29.92S WCI  34
NEWCASTLE      CLOUDY    41  41 100 CALM      29.87R

$$
WYZ014>020-022>026-101>103-260900-
CENTRAL WYOMING

CITY           SKY/WX    TMP DP  RH WIND       PRES   REMARKS
BIG PINEY      LGT RAIN  37  34  89 SE6       29.76F WCI  32
PINEDALE       DRIZZLE   34  34 100 CALM      29.77F
DUBOIS         LGT SNOW  32  32 100 SE13      29.79S VSB 3/4 WCI  22
LANDER         LGT RAIN  40  37  89 W8        29.79S WCI  34
RIVERTON       CLOUDY    39  34  82 E15       29.82S WCI  31
CASPER         CLOUDY    39  34  82 NE14      29.85S WCI  31
DOUGLAS        CLOUDY    41  37  86 N8        29.85F

$$
WYZ021-027>030-104>119-260900-
SOUTHERN WYOMING

CITY           SKY/WX    TMP DP  RH WIND       PRES   REMARKS
EVANSTON       LGT RAIN  35  34  96 NW8       29.72S VSB 1/4 WCI  29
KEMMERER       CLOUDY    36  34  93 NE14      29.72F WCI  27
FORT BRIDGER   CLOUDY    37  37 100 CALM      29.73F
ROCK SPRINGS   LGT RAIN  41  36  82 SE8       29.73F
DIXON          PTSUNNY   43  36  75 E10       29.78F
RAWLINS        CLOUDY    39  35  86 E9        29.80F WCI  33
SARATOGA       LGT RAIN  39  37  93 MISG      29.82R
LARAMIE        LGT RAIN  36  34  92 W8        29.82S WCI  30
CHEYENNE       CLOUDY    42  40  92 E9        29.82S
TORRINGTON     MOCLDY    49  44  83 E8        29.79F
PINE BLUFFS    CLOUDY    43  43 100 E16       29.82R

$$


USA.gov is the U.S. government's official web portal to all federal, state and local government web resources and services.